Flag for Germany Weather past 2 weeks in Lutherstadt Eisleben, Saxony-Anhalt, Germany

Now
35 °F

Clear.


Feels Like: 32 °F
Forecast: 38 / 59 °F
Wind: 3 mph from Southwest

Location: Leipzig-Schkeuditz

Current Time: Apr 19, 2015 at 5:16:55 AM

Latest Report: Apr 19, 2015 at 4:00 AM


Visibility: 31 mi

Pressure: 30.22 "Hg

Humidity: 80%

Dew point: 29 °F

Location of Lutherstadt EislebenLocation

Historic Weather in Lutherstadt Eisleben — Graph

°F

Lutherstadt Eisleben temperature yesterday

Maximum temperature yesterday: 51 °F (at 6:00 PM)
Minimum temperature yesterday: 34 °F (at 7:00 AM)
Average temperature yesterday: 43 °F

Past Weeks' High & Low Weather Summary

 TemperatureHumidityPressure
High73 °F (Apr 15, 4:00 PM)95% (Apr 5, 2:00 AM)30.61 "Hg (Apr 5, 2:00 AM)
Low29 °F (Apr 4, 6:00 AM)22% (Apr 12, 2:00 PM)29.87 "Hg (Apr 15, 8:00 PM)
Average48 °F63%30.23 "Hg
* Reported Apr 4 4:00 AM — Apr 19 4:00 AM, Lutherstadt Eisleben, Weather by CustomWeather, © 2015

Note: Actual official high and low records may vary slightly from our data, if they occured in-between our weather recording intervals... More about our weather records

Advertising

Lutherstadt Eisleben weather history for previous 24 hours

 ConditionsComfort  
Time TempWeatherWind HumidityBarometerVisibility
4:00 AM
Sun, Apr 19
35 °FClear.3 mph80%30.22 "Hg31 mi
3:00 AM37 °FPassing clouds.3 mph77%30.23 "Hg31 mi
2:00 AM38 °FClear.2 mph75%30.24 "Hg31 mi
1:00 AM38 °FClear.2 mph70%30.24 "Hg31 mi
12:00 AM39 °FPassing clouds.2 mph67%30.25 "Hg31 mi
11:00 PM
Sat, Apr 18
40 °FClear.2 mph65%30.25 "Hg31 mi
10:00 PM41 °FClear.1 mph63%30.25 "Hg31 mi
9:00 PM45 °FPassing clouds.1 mph54%30.24 "Hg37 mi
8:00 PM49 °FPassing clouds.2 mph48%30.24 "Hg37 mi
7:00 PM50 °FScattered clouds.2 mph43%30.25 "Hg43 mi
6:00 PM51 °FPartly sunny.5 mph40%30.25 "Hg43 mi
4:00 PM50 °FPartly sunny.3 mph41%30.28 "Hg43 mi
3:00 PM50 °FPartly sunny.3 mph40%30.29 "Hg43 mi
2:00 PM48 °FPartly sunny.3 mph46%30.30 "Hg37 mi
1:00 PM47 °FPartly sunny.3 mph50%30.31 "Hg37 mi
12:00 PM47 °FPartly sunny.2 mph54%30.32 "Hg37 mi
10:00 AM42 °FScattered clouds.2 mph73%30.30 "Hg43 mi
9:00 AM39 °FScattered clouds.3 mph87%30.29 "Hg47 mi
8:00 AM36 °FPassing clouds.2 mph92%30.28 "Hg37 mi
7:00 AM34 °FPassing clouds.3 mph95%30.26 "Hg37 mi
6:00 AM34 °FPassing clouds.3 mph92%30.24 "Hg31 mi
Weather by CustomWeather, © 2015

See weather overviewHow to use our weather pages